Location: Niagara
(43.2500°N, 79.0670°W)
Time: 02:05:19
(UTC-04:00)

Envisat - Pass Details

Date: 10 October 2017
Orbit: 764 x 766 km, 98.2° (Epoch: 22 October)

Event Time Altitude Azimuth Distance (km) Brightness Sun altitude
Exits shadow 21:07:41 83° 249° (WSW) 777 2.9 -27.2°
Maximum altitude 21:07:43 83° 257° (WSW) 776 2.9 -27.3°
Drops below altitude 10° 21:12:50 10° 345° (NNW) 2,311 5.8 -28.1°
Sets 21:15:08 0° 347° (NNW) 3,241 6.7 -28.5°
